Location: Austin
(30.3000°N, 97.7500°W)
Time: 22:47:13
(UTC-05:00)

Resurs 01 Rocket - Pass Details

Date: 08 April 2026
Orbit: 625 x 637 km, 97.7° (Epoch: 20 April)

Event Time Altitude Azimuth Distance (km) Brightness Sun altitude
Rises 21:00:21 0° 184° (S) 2,912 4.9 -14.7°
Reaches altitude 10° 21:02:40 10° 192° (SSW) 2,006 4.1 -15.1°
Maximum altitude 21:06:45 39° 261° (W) 955 3.0 -16.0°
Drops below altitude 10° 21:10:50 10° 331° (NNW) 2,011 4.9 -16.8°
Sets 21:13:10 0° 339° (NNW) 2,920 5.6 -17.3°
